Torna al catalogo

ONEWEB-0330

AttivoComunicazioniPO
NORAD 49108·PAYLOAD·🇬🇧 United Kingdom

Lanciato Aug 21, 2021 da Baikonur Cosmodrome

Loading…

Prossimi Passaggi (prossime 24 ore)

TLE

AggiornatoSource: CelesTrak SupGP

Epoca: Sep 14, 2026, 08:11 UTC

1 49108C 21075AK  26257.34115000 -.00002475  00000+0 -63824-2 0  2574
2 49108  87.9206 348.1772 0001753 105.5965 286.4828 13.17649483    10

Traccia ONEWEB-0330 in tempo reale con AllMySat

Download on the App Store